Regional Weather Roundup
Issued by NWS Huntsville, AL

Home | Current Version | Previous Version | Text Only | Print | Product List | Glossary On
Versions: 1 2 3 4 5 6 7 8 9 10 11 12 13 14 15 16 17 18 19 20 21 22 23 24 25 26 27 28 29 30 31 32 33 34 35 36 37 38 39 40 41 42 43 44 45 46 47 48 49 50
000
ASUS44 KHUN 260210
RWRHUN

WEATHER ROUNDUP FOR THE TENNESSEE VALLEY
NATIONAL WEATHER SERVICE HUNTSVILLE AL
900 PM CDT FRI JUL 25 2014

ALZ001>004-260300-
NORTHWEST ALABAMA

CITY           SKY/WX    TMP DP  RH WIND       PRES   REMARKS
SHOALS AIRPORT PTCLDY    72  65  78 CALM      29.99S
SHOALS TVA RES   N/A     72 N/A N/A MISG        N/A
$$

ALZ005>007-016-260300-
NORTH CENTRAL ALABAMA

CITY           SKY/WX    TMP DP  RH WIND       PRES   REMARKS
DECATUR AP     PTCLDY    71  67  87 CALM      29.99S
HUNTSVILLE AP  PTCLDY    74  67  78 CALM      29.98F
HUN NWS/UAH      N/A     76  63  62 CALM        N/A
MERIDIANVILLE  PTCLDY    70  63  78 CALM      29.99S
VINEMONT AP    FAIR      69  67  94 CALM      30.02F
$$

ALZ008>010-260300-
NORTHEAST ALABAMA

CITY           SKY/WX    TMP DP  RH WIND       PRES   REMARKS
ALBERTVILLE    CLEAR     75  68  78 CALM      30.00S
FORT PAYNE     CLEAR     68  63  83 CALM      30.00R
SCOTTSBORO AP  CLEAR     73  68  83 CALM      29.99F
SCOTTSBORO HCN   N/A     72 N/A N/A MISG        N/A
VALLEY HEAD      N/A     68 N/A N/A MISG        N/A
$$

TNZ076-096-097-260300-
SOUTHEASTERN MIDDLE TENNESSEE

CITY           SKY/WX    TMP DP  RH WIND       PRES   REMARKS
FAYETTEVILLE   CLEAR     70  63  78 CALM      30.00S
TULLAHOMA      CLEAR     70  61  73 CALM      30.02R
WINCHESTER     CLEAR     70  64  83 CALM      30.01S
$$

...SURROUNDING SITES...

CITY           SKY/WX    TMP DP  RH WIND       PRES   REMARKS
ATLANTA        PTCLDY    81  65  58 NW5       30.01R
ANNISTON       CLEAR     76  67  73 CALM      30.00R
BIRMINGHAM     CLEAR     78  62  57 CALM      30.02R
CHATTANOOGA    MOCLDY    77  63  61 N3        29.99S
CORINTH        FAIR      73  66  78 CALM      29.97F
DALTON         CLEAR     72  70  94 CALM      30.00R
GADSDEN        CLEAR     72  66  83 CALM      29.99R
GOLDEN TRNGL   CLEAR     73  64  73 CALM      30.00R
HALEYVILLE     FAIR      70  67  90 CALM      30.03S
JACKSON TN     MOCLDY    72  68  87 S5        29.97S
LEWISBURG      FAIR      69  64  84 CALM      29.98S
MEMPHIS        PTCLDY    78  65  63 S6        29.97S
MURFREESBORO   FAIR      75  63  66 S3        29.97R
NASHVILLE      MOCLDY    77  61  57 SW3       29.97R
ROME           CLEAR     75  69  81 CALM      29.99R
SAVANNAH       PTCLDY    71  71 100 CALM      29.97F
TUPELO         CLEAR     76  66  71 CALM      29.98S
TUSCALOOSA     CLEAR     75  67  76 CALM      29.99R
$$

...GULF COAST WEATHER...

CITY           SKY/WX    TMP DP  RH WIND       PRES   REMARKS
GULFPORT       CLOUDY    83  77  82 CALM      29.99R HX  92
PASCAGOULA     CLOUDY    79  75  87 N5        30.01R
MOBILE         CLOUDY    76  76 100 E7        30.03S THUNDER
GULF SHORES    CLOUDY    81  76  87 CALM      30.01S
PENSACOLA      CLOUDY    81  78  91 W3        30.01R
DESTIN         CLOUDY    83  74  74 VRB3      30.03R
PANAMA CITY    PTCLDY    83  77  82 SW6       30.05R HX  92
APPALACHICOLA  MOCLDY    83  76  79 W8        30.04R HX  91
$$




USA.gov is the U.S. government's official web portal to all federal, state and local government web resources and services.